Other Public Products
Issued by NWS Grand Forks, ND

Home | Current Version | Previous Version | Graphics & Text | Print | Product List | Glossary On
Versions: 1 2 3 4 5 6 7 8 9 10 11 12 13 14 15 16 17 18 19 20 21 22 23 24 25 26 27 28 29 30 31 32 33 34 35 36 37 38 39 40 41 42 43 44 45 46 47 48 49 50
000
FPUS83 KFGF 150531
OPUFGF
PRAIRIE TO PINES WEATHER ROUNDUP
NATIONAL WEATHER SERVICE EASTERN NORTH DAKOTA/GRAND FORKS ND
1200 AM CDT MON SEP 15 2014

 **SATELLITE DATA USED TO AUGMENT SKY COVER AT AUTOMATED STATIONS**
 *****  WEATHER ACROSS EASTERN NORTH DAKOTA  *****

CITY           SKY/WX    TMP DP  RH WIND       PRES   REMARKS
GRAND FORKS    CLOUDY    48  44  86 NW3       30.17R
GRAND FORKS AF CLOUDY    47  45  92 NW3       30.17R
GRAND CITY NWS   N/A     48 N/A N/A N1          N/A
BUXTON           N/A     49  45  87 NW2         N/A
DEVILS LAKE    PTCLDY    46  36  66 NW6       30.17S
FARGO          CLOUDY    50  43  77 W3        30.17R
WAHPETON ARPT  MOCLDY    41  36  81 W3        30.17S
$$

 *****  WEATHER ACROSS CENTRAL AND WESTERN NORTH DAKOTA  *****

CITY           SKY/WX    TMP DP  RH WIND       PRES   REMARKS
JAMESTOWN      CLOUDY    48  44  86 CALM      30.18S
BISMARCK       MOCLDY    45  37  73 CALM      30.22R
MINOT          CLEAR     40  33  76 SW6       30.19R
MINOT AFB      CLEAR     36  33  90 SW8       30.19R
GARRISON         N/A     38  34  85 CALM      30.21R
WILLISTON      CLOUDY    44  33  65 CALM      30.21R
DICKINSON      MOCLDY    45  36  70 SE6       30.20S
HETTINGER      CLOUDY    45  37  73 E7        30.23R
$$

 *****  OTHER OBSERVATIONS NORTHEAST NORTH DAKOTA  *****

CITY           SKY/WX    TMP DP  RH WIND       PRES   REMARKS
WALHALLA       FAIR      41  41 100 SW3       30.17R
LANGDON        FAIR      37  34  87 CALM      30.17R
CAVALIER       FAIR      39  37  93 W3        30.16S
GRAFTON        CLOUDY    46  43  87 W5        30.17R
CANDO          FAIR      37  36  93 W5        30.19S
FORT TOTTEN      N/A     49  37  63 CALM      29.95
ROLLA          FAIR      32  32 100 SW5       30.18S
RUGBY          FAIR      37  36  93 CALM      30.19S
 ***** THE ABOVE OBSERVATIONS ARE NON NWS ARE NOT QUALITY
        CONTROLLED AND MAY MIS-REPORT RAIN FOR SNOW...
$$

 *****  OTHER OBSERVATIONS SOUTHEAST NORTH DAKOTA *****

CITY           SKY/WX    TMP DP  RH WIND       PRES   REMARKS
COOPERSTOWN    NOT AVBL
VALLEY CITY    CLOUDY    46  45  93 CALM      30.18S
OAKES            N/A     41  41 100 SW3       30.18S
GWINNER        PTCLDY    43  39  87 NW5       30.19S
SHEYENNE NWR     N/A     44  43  96 CALM      29.95S
BUFFALO          N/A     48  42  80 W2          N/A
WYNDMERE         N/A     39  39 100 SW1         N/A
 ***** THE ABOVE OBSERVATIONS ARE NON NWS ARE NOT QUALITY
       CONTROLLED AND MAY MIS-REPORT RAIN FOR SNOW...
$$

  *****  WEATHER ACROSS NORTHERN MINNESOTA  *****

CITY           SKY/WX    TMP DP  RH WIND       PRES   REMARKS
FLAG ISLAND    CLEAR     45  41  87 W9        30.11R
WARROAD        CLEAR     41  37  87 W3        30.14R
ROSEAU         MOCLDY    45  39  81 W5        30.14S
HALLOCK        CLOUDY    45  43  93 CALM      30.15S
THF RVR FALLS  CLOUDY    46  39  76 NW5       30.16R
HALSTAD          N/A     47  43  84 W3          N/A
FOSSTON        CLOUDY    45  43  93 CALM      30.16S
BAUDETTE       CLOUDY    48  42  80 VRB6      30.12R
WASKISH        CLOUDY    50  45  81 CALM      30.13S
CROOKSTON      CLOUDY    46  45  93 W3        30.18R
$$
  *****  WEATHER ACROSS CENTRAL AND WEST MINNESOTA  *****

CITY           SKY/WX    TMP DP  RH WIND       PRES   REMARKS
BEMIDJI        CLOUDY    46  44  92 W6        30.14S
PARK RAPIDS    CLOUDY    41  40  96 CALM      30.15R
WADENA         PTCLDY    41  41 100 CALM      30.15S
DETROIT LAKES  MOCLDY    46  43  87 NW5       30.17S
MOORHEAD       CLOUDY    52  46  82 CALM      30.18R
FERGUS FALLS   MOCLDY    46  43  87 CALM      30.18S
ELBOW LAKE     FAIR      46  44  95 CALM      30.16S
MORRIS MN      MOCLDY    46  43  87 CALM      30.15S
STAPLES        PTCLDY    39  39 100 CALM      30.16R
WHEATON        MOCLDY    45  41  87 CALM      30.19S
$$
  *****  WEATHER ELSEWHERE ACROSS MINNESOTA  *****

CITY           SKY/WX    TMP DP  RH WIND       PRES   REMARKS
DULUTH         CLEAR     46  41  82 NW9       30.10S
INTRNTL FALLS  CLOUDY    46  44  93 W5        30.09R
ELY            MOCLDY    43  43 100 CALM      30.09R
CLOQUET        CLEAR     43  41  93 W7        30.11S
BRAINERD       PTCLDY    42  42 100 CALM      30.15R
HIBBING        MOCLDY    44  41  89 NW3       30.11R
ALEXANDRIA     PTCLDY    48  44  86 NW5       30.17R
SAINT CLOUD    MOCLDY    49  45  86 CALM      30.16R
MINNEAPOLIS    CLOUDY    55  44  66 NW3       30.15S
$$

  *****  WEATHER ACROSS SOUTH DAKOTA  *****

CITY           SKY/WX    TMP DP  RH WIND       PRES   REMARKS
SIOUX FALLS    CLOUDY    50  47  89 E6        30.14F
BROOKINGS      NOT AVBL
WATERTOWN      LGT RAIN  48  43  82 CALM      30.16S
HURON          CLOUDY    49  46  90 CALM      30.16R
SISSETON         N/A     46  43  89 N6        30.16S
ABERDEEN       CLOUDY    46  45  96 CALM      30.19R
MITCHELL       CLOUDY    50  47  89 CALM      30.15S
PIERRE         CLOUDY    52  37  56 N8        30.18R
MOBRIDGE       CLOUDY    50  42  74 N7        30.19R
RAPID CITY     MOCLDY    43  39  86 NW3       30.23R
$$

  *****  SOME WEATHER IN NEARBY STATES *****

CITY           SKY/WX    TMP DP  RH WIND       PRES   REMARKS
GLASGOW MT     CLEAR     43  32  65 SE7       30.18S
GREAT FALLS MT CLEAR     47  36  65 E8        30.16R
CHEYENNE WY    PTCLDY    49  44  83 N8        30.22R
SCOTTSBLUFF NE PTCLDY    50  44  80 N9        30.16R
OMAHA NE       CLOUDY    64  53  67 E3        30.09S
DES MOINES IA  CLOUDY    62  52  69 SE7       30.13S
DAVENPORT IA   PTCLDY    50  46  86 SE5       30.17S
CHICAGO IL     PTCLDY    53  46  77 CALM      30.18S
EAU CLAIRE WI  CLOUDY    51  44  77 SW5       30.14R
LA CROSSE WI   CLOUDY    58  52  80 CALM      30.14R
$$

  *****  SOME NATIONAL WEATHER *****

CITY           SKY/WX    TMP DP  RH WIND       PRES   REMARKS
LA GUARDIA NY  PTCLDY    61  50  67 NE10      30.18S
RALEIGH NC     CLOUDY    63  60  90 CALM      30.23F
ATLANTA GA     CLOUDY    66  64  93 E8        30.22S FOG
NEW ORLEANS LA PTCLDY    81  75  82 CALM      30.08F
OKLAHOMA CITY  CLOUDY    68  63  84 S8        30.12S
ALBUQUERQUE NM PTCLDY    69  52  54 S7        30.22R
SALT LAKE CITY PTCLDY    71  41  33 SE8       30.01S
LOS ANGELES CA PTCLDY    75  64  68 SE3       29.74R
BOISE ID       CLEAR     65  35  33 CALM      29.94S
SEATTLE WA     CLEAR     68  42  38 N7        29.86S
$$

*** WEATHER ACROSS MANITOBA...SASKATCHEWAN AND ONTARIO ***
                ***ONTARIO***

CITY           SKY/WX    TMP DP  RH WIND       PRES   REMARKS
GERALDTON      CLOUDY    46  46 100 NW3       29.95R
THUNDER BAY    CLEAR     37  37 100 SW3       30.03S
SIOUX LOOKOUT  CLOUDY    45  45 100 NW6       30.03R
TORONTO        MOCLDY    55  46  71 SW3       30.20F
BIG TROUT LK   CLOUDY    43  37  81 W7        29.95F
PICKLE LAKE    NOT AVBL
DRYDEN         CLOUDY    45  45 100 W8        30.05R
KENORA         CLOUDY    45  39  81 NW6       30.09R
$$
                *** MANITOBA***

CITY           SKY/WX    TMP DP  RH WIND       PRES   REMARKS
BRANDON        PTCLDY    39  36  87 W9        30.16R
DAUPHIN        CLEAR     43  37  81 SW9       30.11R
ISLAND LAKE    MOCLDY    46  37  71 W6        29.98S
PILOT MOUND      N/A     37  34  87 SW5         N/A
THE PAS        PTCLDY    45  37  76 W2        29.98R
THOMPSON       MOCLDY    41  39  93 NW3       29.89S
WINNIPEG       MOCLDY    45  37  76 W7        30.14
LYNN LAKE      PTCLDY    36  32  87 MISG      29.89F
CHURCHILL      CLOUDY    43  39  87 N13       29.80S
GILLAM         CLOUDY   N/A N/A N/A W12         N/A
$$
                ***SASKATCHEWAN***

CITY           SKY/WX    TMP DP  RH WIND       PRES   REMARKS
ESTEVAN        CLOUDY    43  37  81 SW5       30.17S
KINDERSLEY     MOCLDY    45  37  76 S7        30.08F
LLOYDMINSTER   CLEAR     45  37  76 S9        30.02S
PRINCE ALBERT  CLEAR     37  36  93 CALM      30.05S
REGINA         CLEAR     39  34  81 S7        30.14S



USA.gov is the U.S. government's official web portal to all federal, state and local government web resources and services.